When you browse on this site, cookies collect data to enhance your experience and personalize the content and advertising you see.
Visit our Privacy Policy to learn more. By continuing to use the site, you agree to this use of cookies and data.

Hourly Weather Morozov

Today, 3 August, Monday

Time Temperature Precipitation Wind Pressure Humidity
00:00 +23°C° 0 mm 2 mps 754 mmHg 43%
01:00 +23°C° 0 mm 2 mps 754 mmHg 45%
02:00 +21°C° 0 mm 2 mps 754 mmHg 47%
03:00 +21°C° 0 mm 2 mps 754 mmHg 50%
04:00 +22°C° 0 mm 1 mps 754 mmHg 50%
05:00 +23°C° 0 mm 1 mps 755 mmHg 51%
06:00 +21°C° 0 mm 0 mps 755 mmHg 51%
07:00 +24°C° 0 mm 1 mps 755 mmHg 47%
08:00 +25°C° 0 mm 2 mps 755 mmHg 42%
09:00 +27°C° 0 mm 3 mps 755 mmHg 37%
10:00 +27°C° 0 mm 3 mps 755 mmHg 35%
11:00 +27°C° 0 mm 3 mps 755 mmHg 34%
12:00 +28°C° 0 mm 3 mps 755 mmHg 33%
13:00 +27°C° 0 mm 3 mps 755 mmHg 37%
14:00 +27°C° 0 mm 4 mps 755 mmHg 40%
15:00 +26°C° 0 mm 4 mps 755 mmHg 44%
16:00 +25°C° 0.7 mm 4 mps 755 mmHg 51%
17:00 +24°C° 0.7 mm 3 mps 755 mmHg 59%
18:00 +21°C° 0.7 mm 3 mps 755 mmHg 66%
19:00 +21°C° 0.5 mm 3 mps 755 mmHg 69%
20:00 +20°C° 0.5 mm 2 mps 755 mmHg 72%
21:00 +20°C° 0.5 mm 2 mps 755 mmHg 75%
22:00 +19°C° 0.2 mm 3 mps 755 mmHg 75%
23:00 +19°C° 0.2 mm 3 mps 755 mmHg 76%

Tomorrow, 4 August, Tuesday

Time Temperature Precipitation Wind Pressure Humidity
00:00 +19°C° 0.2 mm 4 mps 755 mmHg 76%
01:00 +19°C° 0 mm 4 mps 755 mmHg 77%
02:00 +17°C° 0 mm 5 mps 756 mmHg 77%
03:00 +17°C° 0 mm 6 mps 756 mmHg 78%
04:00 +17°C° 0.1 mm 6 mps 756 mmHg 79%
05:00 +17°C° 0.1 mm 6 mps 756 mmHg 79%
06:00 +17°C° 0.1 mm 6 mps 755 mmHg 80%
07:00 +18°C° 0.1 mm 7 mps 755 mmHg 74%
08:00 +20°C° 0.1 mm 8 mps 755 mmHg 68%
09:00 +21°C° 0.1 mm 8 mps 755 mmHg 63%
10:00 +19°C° 1 mm 9 mps 755 mmHg 68%
11:00 +18°C° 1 mm 9 mps 755 mmHg 73%
12:00 +17°C° 1 mm 9 mps 754 mmHg 78%
13:00 +17°C° 0.3 mm 10 mps 754 mmHg 76%
14:00 +17°C° 0.3 mm 10 mps 754 mmHg 74%
15:00 +18°C° 0.3 mm 11 mps 754 mmHg 72%
16:00 +18°C° 0.3 mm 11 mps 753 mmHg 73%
17:00 +18°C° 0.3 mm 11 mps 753 mmHg 73%
18:00 +18°C° 0.3 mm 11 mps 753 mmHg 73%
19:00 +18°C° 0.1 mm 11 mps 753 mmHg 75%
20:00 +18°C° 0.1 mm 10 mps 753 mmHg 78%
21:00 +18°C° 0.1 mm 9 mps 753 mmHg 80%
22:00 +18°C° 0 mm 9 mps 753 mmHg 82%
23:00 +18°C° 0 mm 8 mps 753 mmHg 83%

Day after tomorrow, 5 August, Wednesday

Time Temperature Precipitation Wind Pressure Humidity
00:00 +18°C° 0 mm 7 mps 753 mmHg 85%
01:00 +18°C° 0 mm 7 mps 753 mmHg 86%
02:00 +18°C° 0 mm 7 mps 754 mmHg 87%
03:00 +18°C° 0 mm 7 mps 754 mmHg 89%
04:00 +18°C° 0 mm 7 mps 754 mmHg 88%
05:00 +19°C° 0 mm 6 mps 754 mmHg 88%
06:00 +19°C° 0 mm 6 mps 754 mmHg 87%
07:00 +21°C° 0 mm 6 mps 755 mmHg 81%
08:00 +22°C° 0 mm 6 mps 755 mmHg 74%
09:00 +24°C° 0 mm 6 mps 755 mmHg 68%
10:00 +26°C° 0 mm 7 mps 755 mmHg 64%
11:00 +28°C° 0 mm 7 mps 755 mmHg 60%
12:00 +29°C° 0 mm 7 mps 754 mmHg 56%
13:00 +30°C° 0 mm 7 mps 754 mmHg 54%
14:00 +32°C° 0 mm 6 mps 754 mmHg 52%
15:00 +32°C° 0 mm 6 mps 754 mmHg 50%
16:00 +32°C° 0 mm 5 mps 754 mmHg 50%
17:00 +32°C° 0 mm 5 mps 754 mmHg 50%
18:00 +32°C° 0 mm 4 mps 754 mmHg 50%
19:00 +30°C° 1.7 mm 4 mps 754 mmHg 57%
20:00 +28°C° 1.7 mm 5 mps 754 mmHg 64%
21:00 +26°C° 1.7 mm 5 mps 755 mmHg 71%
22:00 +25°C° 0.1 mm 4 mps 755 mmHg 71%
23:00 +23°C° 0.1 mm 4 mps 754 mmHg 72%

6 August, Thursday

Time Temperature Precipitation Wind Pressure Humidity
00:00 +22°C° 0.1 mm 3 mps 754 mmHg 72%
01:00 +22°C° 0.1 mm 3 mps 754 mmHg 75%
02:00 +22°C° 0.1 mm 3 mps 754 mmHg 77%
03:00 +22°C° 0.1 mm 3 mps 754 mmHg 80%
04:00 +22°C° 0 mm 4 mps 755 mmHg 79%
05:00 +22°C° 0 mm 4 mps 755 mmHg 78%
06:00 +23°C° 0 mm 5 mps 755 mmHg 78%
07:00 +25°C° 0 mm 5 mps 755 mmHg 71%
08:00 +27°C° 0 mm 6 mps 755 mmHg 65%
09:00 +28°C° 0 mm 6 mps 755 mmHg 58%
10:00 +30°C° 0 mm 6 mps 755 mmHg 52%
11:00 +33°C° 0 mm 7 mps 755 mmHg 45%
12:00 +34°C° 0 mm 7 mps 755 mmHg 38%
13:00 +35°C° 0 mm 7 mps 755 mmHg 37%
14:00 +35°C° 0 mm 7 mps 755 mmHg 35%
15:00 +35°C° 0 mm 6 mps 755 mmHg 34%
16:00 +34°C° 0 mm 5 mps 755 mmHg 37%
17:00 +33°C° 0 mm 4 mps 755 mmHg 40%
18:00 +33°C° 0 mm 4 mps 755 mmHg 42%
19:00 +30°C° 0.1 mm 3 mps 755 mmHg 46%
20:00 +29°C° 0.1 mm 3 mps 755 mmHg 50%
21:00 +28°C° 0.1 mm 3 mps 755 mmHg 54%
22:00 +27°C° 0 mm 3 mps 755 mmHg 56%
23:00 +27°C° 0 mm 4 mps 755 mmHg 58%

7 August, Friday

Time Temperature Precipitation Wind Pressure Humidity
00:00 +26°C° 0 mm 4 mps 755 mmHg 60%
01:00 +26°C° 0 mm 4 mps 755 mmHg 63%
02:00 +25°C° 0 mm 4 mps 755 mmHg 66%
03:00 +23°C° 0 mm 4 mps 754 mmHg 70%
04:00 +23°C° 0 mm 5 mps 755 mmHg 69%
05:00 +25°C° 0 mm 5 mps 755 mmHg 69%
06:00 +25°C° 0 mm 5 mps 755 mmHg 69%
07:00 +26°C° 0 mm 6 mps 755 mmHg 62%
08:00 +28°C° 0 mm 6 mps 755 mmHg 54%
09:00 +30°C° 0 mm 7 mps 755 mmHg 47%
10:00 +32°C° 0 mm 7 mps 755 mmHg 44%
11:00 +33°C° 0 mm 6 mps 755 mmHg 40%
12:00 +34°C° 0 mm 6 mps 754 mmHg 37%
13:00 +34°C° 0 mm 6 mps 754 mmHg 36%
14:00 +34°C° 0 mm 6 mps 754 mmHg 34%
15:00 +35°C° 0 mm 6 mps 754 mmHg 33%
16:00 +34°C° 0 mm 6 mps 754 mmHg 35%
17:00 +34°C° 0 mm 5 mps 754 mmHg 36%
18:00 +33°C° 0 mm 5 mps 753 mmHg 38%
19:00 +32°C° 0 mm 5 mps 753 mmHg 42%
20:00 +29°C° 0 mm 5 mps 753 mmHg 46%
21:00 +28°C° 0 mm 5 mps 753 mmHg 50%
22:00 +27°C° 0 mm 5 mps 753 mmHg 53%
23:00 +27°C° 0 mm 5 mps 753 mmHg 56%

8 August, Saturday

Time Temperature Precipitation Wind Pressure Humidity
00:00 +26°C° 0 mm 5 mps 753 mmHg 59%
01:00 +26°C° 0 mm 5 mps 753 mmHg 62%
02:00 +25°C° 0 mm 5 mps 753 mmHg 65%
03:00 +25°C° 0 mm 5 mps 753 mmHg 68%
04:00 +23°C° 0 mm 5 mps 753 mmHg 70%
05:00 +23°C° 0 mm 5 mps 753 mmHg 73%
06:00 +23°C° 0 mm 6 mps 753 mmHg 75%
07:00 +24°C° 0 mm 6 mps 753 mmHg 70%
08:00 +27°C° 0 mm 6 mps 753 mmHg 64%
09:00 +28°C° 0 mm 6 mps 753 mmHg 58%
10:00 +29°C° 0 mm 7 mps 753 mmHg 54%
11:00 +30°C° 0 mm 7 mps 753 mmHg 50%
12:00 +32°C° 0 mm 7 mps 752 mmHg 45%
13:00 +32°C° 0.4 mm 7 mps 752 mmHg 47%
14:00 +30°C° 0.4 mm 7 mps 752 mmHg 48%
15:00 +30°C° 0.4 mm 7 mps 752 mmHg 49%
16:00 +30°C° 0.6 mm 7 mps 752 mmHg 50%
17:00 +29°C° 0.6 mm 7 mps 752 mmHg 51%
18:00 +29°C° 0.6 mm 7 mps 752 mmHg 53%
19:00 +27°C° 0 mm 7 mps 752 mmHg 57%
20:00 +26°C° 0 mm 6 mps 752 mmHg 61%
21:00 +24°C° 0 mm 6 mps 752 mmHg 66%
22:00 +23°C° 0 mm 6 mps 752 mmHg 68%
23:00 +22°C° 0 mm 6 mps 752 mmHg 71%
Show more